| time (UTC) | temp C | wind direction | speed KPH | gust KPH | rain 1hr cm | rain 24hr cm | rain mn cm | humidity % | barometer mb |
| 20260507105403 | 15 | 340 | 4.8 | 11.3 | 0.00 | 0.00 | 0.00 | 57 | 1016.3 |
| 20260507104716 | 15 | 322 | 4.8 | 11.3 | 0.00 | 0.00 | 0.00 | 55 | 1016.3 |
| 20260507103603 | 14 | 4 | 3.2 | 9.7 | 0.00 | 0.00 | 0.00 | 56 | 1016.3 |
| 20260507102703 | 14 | 4 | 4.8 | 11.3 | 0.00 | 0.00 | 0.00 | 58 | 1016.3 |
| 20260507101803 | 14 | 357 | 4.8 | 9.7 | 0.00 | 0.00 | 0.00 | 61 | 1016.3 |
| 20260507100903 | 14 | 5 | 4.8 | 11.3 | 0.00 | 0.00 | 0.00 | 63 | 1016.3 |
| 20260507100003 | 13 | 357 | 4.8 | 9.7 | 0.00 | 0.00 | 0.00 | 61 | 1016.2 |
| 20260507095403 | 13 | 11 | 4.8 | 9.7 | 0.00 | 0.00 | 0.00 | 63 | 1016.2 |
| 20260507094718 | 13 | 15 | 4.8 | 9.7 | 0.00 | 0.00 | 0.00 | 61 | 1016.2 |
| 20260507093817 | 13 | 358 | 3.2 | 11.3 | 0.00 | 0.00 | 0.00 | 66 | 1016.2 |
| 20260507092917 | 13 | 351 | 3.2 | 8.0 | 0.00 | 0.00 | 0.00 | 64 | 1016.1 |
| 20260507092018 | 13 | 20 | 3.2 | 6.4 | 0.00 | 0.00 | 0.00 | 67 | 1016.0 |
| 20260507090903 | 13 | 24 | 3.2 | 8.0 | 0.00 | 0.00 | 0.00 | 66 | 1015.9 |
| 20260507090004 | 13 | 10 | 4.8 | 9.7 | 0.00 | 0.00 | 0.00 | 68 | 1016.0 |
| 20260507085403 | 13 | 22 | 3.2 | 9.7 | 0.00 | 0.00 | 0.00 | 69 | 1016.0 |
| 20260507084718 | 13 | 10 | 3.2 | 9.7 | 0.00 | 0.00 | 0.00 | 69 | 1015.9 |
| 20260507083603 | 13 | 47 | 3.2 | 9.7 | 0.00 | 0.00 | 0.00 | 67 | 1016.0 |
| 20260507082703 | 13 | 62 | 3.2 | 9.7 | 0.00 | 0.00 | 0.00 | 69 | 1015.9 |
| 20260507081803 | 13 | 31 | 4.8 | 11.3 | 0.00 | 0.00 | 0.00 | 68 | 1016.0 |
| 20260507080903 | 13 | 27 | 4.8 | 11.3 | 0.00 | 0.00 | 0.00 | 66 | 1015.9 |
| 20260507080003 | 13 | 43 | 4.8 | 9.7 | 0.00 | 0.00 | 0.00 | 67 | 1015.9 |
| 20260507075403 | 13 | 35 | 4.8 | 11.3 | 0.00 | 0.00 | 0.00 | 67 | 1015.8 |
| 20260507074503 | 13 | 62 | 3.2 | 11.3 | 0.00 | 0.00 | 0.00 | 68 | 1015.8 |
| 20260507073603 | 13 | 63 | 3.2 | 8.0 | 0.00 | 0.00 | 0.00 | 69 | 1015.8 |
| 20260507072703 | 13 | 52 | 3.2 | 9.7 | 0.00 | 0.00 | 0.00 | 70 | 1015.7 |
| 20260507071803 | 13 | 61 | 4.8 | 9.7 | 0.00 | 0.00 | 0.00 | 69 | 1015.7 |
| 20260507070903 | 13 | 63 | 3.2 | 11.3 | 0.00 | 0.00 | 0.00 | 68 | 1015.7 |
| 20260507070218 | 12 | 74 | 4.8 | 11.3 | 0.00 | 0.00 | 0.00 | 68 | 1015.7 |
| 20260507065403 | 12 | 53 | 4.8 | 11.3 | 0.00 | 0.00 | 0.00 | 69 | 1015.7 |
| 20260507064503 | 12 | 44 | 4.8 | 12.9 | 0.00 | 0.00 | 0.00 | 69 | 1015.7 |
| 20260507063603 | 12 | 37 | 4.8 | 9.7 | 0.00 | 0.00 | 0.00 | 71 | 1015.7 |
| 20260507062703 | 11 | 39 | 4.8 | 12.9 | 0.00 | 0.00 | 0.00 | 72 | 1015.6 |
| 20260507061803 | 11 | 45 | 4.8 | 11.3 | 0.00 | 0.00 | 0.00 | 76 | 1015.5 |
| 20260507060903 | 10 | 35 | 3.2 | 8.0 | 0.00 | 0.00 | 0.00 | 78 | 1015.4 |
| 20260507060003 | 10 | 22 | 4.8 | 11.3 | 0.00 | 0.00 | 0.00 | 79 | 1015.4 |
| 20260507055403 | 10 | 20 | 4.8 | 11.3 | 0.00 | 0.00 | 0.00 | 80 | 1015.4 |
| 20260507054716 | 10 | 24 | 4.8 | 8.0 | 0.00 | 0.00 | 0.00 | 81 | 1015.3 |
| 20260507053818 | 10 | 22 | 6.4 | 9.7 | 0.00 | 0.00 | 0.00 | 81 | 1015.3 |
| 20260507052703 | 10 | 30 | 3.2 | 6.4 | 0.00 | 0.00 | 0.00 | 82 | 1015.2 |
| 20260507051803 | 9 | 20 | 4.8 | 8.0 | 0.00 | 0.00 | 0.00 | 82 | 1015.1 |
| 20260507050903 | 9 | 23 | 4.8 | 9.7 | 0.00 | 0.00 | 0.00 | 83 | 1014.9 |
| 20260507050006 | 9 | 21 | 4.8 | 8.0 | 0.00 | 0.00 | 0.00 | 83 | 1014.8 |
| 20260507045403 | 9 | 14 | 3.2 | 8.0 | 0.00 | 0.00 | 0.00 | 83 | 1014.8 |
| 20260507044503 | 9 | 18 | 3.2 | 8.0 | 0.00 | 0.00 | 0.00 | 84 | 1014.7 |
| 20260507043603 | 9 | 14 | 4.8 | 9.7 | 0.00 | 0.00 | 0.00 | 84 | 1014.6 |
| 20260507042703 | 9 | 15 | 4.8 | 8.0 | 0.00 | 0.00 | 0.00 | 84 | 1014.5 |
| 20260507041803 | 9 | 12 | 4.8 | 8.0 | 0.00 | 0.00 | 0.00 | 84 | 1014.5 |
| 20260507040903 | 9 | 19 | 3.2 | 8.0 | 0.00 | 0.00 | 0.00 | 84 | 1014.4 |
| 20260507040003 | 9 | 15 | 3.2 | 6.4 | 0.00 | 0.00 | 0.00 | 84 | 1014.3 |
| 20260507035618 | 9 | 16 | 3.2 | 9.7 | 0.00 | 0.00 | 0.00 | 84 | 1014.3 |
| 20260507034503 | 9 | 14 | 3.2 | 6.4 | 0.00 | 0.00 | 0.00 | 83 | 1014.3 |
| 20260507033817 | 9 | 19 | 3.2 | 6.4 | 0.00 | 0.00 | 0.00 | 83 | 1014.2 |
| 20260507032703 | 9 | 22 | 3.2 | 6.4 | 0.00 | 0.00 | 0.00 | 83 | 1014.1 |
| 20260507031803 | 9 | 23 | 3.2 | 11.3 | 0.00 | 0.00 | 0.00 | 83 | 1014.1 |
| 20260507030903 | 10 | 22 | 4.8 | 6.4 | 0.00 | 0.00 | 0.00 | 83 | 1013.9 |
| 20260507030003 | 10 | 19 | 4.8 | 9.7 | 0.00 | 0.00 | 0.00 | 82 | 1013.9 |
| 20260507025403 | 10 | 19 | 4.8 | 9.7 | 0.00 | 0.00 | 0.00 | 82 | 1013.9 |
| 20260507024503 | 10 | 17 | 6.4 | 11.3 | 0.00 | 0.00 | 0.00 | 81 | 1013.9 |
| 20260507023603 | 10 | 15 | 4.8 | 9.7 | 0.00 | 0.00 | 0.00 | 81 | 1013.9 |
| 20260507022703 | 10 | 9 | 4.8 | 9.7 | 0.00 | 0.00 | 0.00 | 81 | 1013.9 |
| 20260507021803 | 10 | 10 | 4.8 | 8.0 | 0.00 | 0.00 | 0.00 | 80 | 1013.8 |
| 20260507021117 | 10 | 6 | 4.8 | 9.7 | 0.00 | 0.00 | 0.00 | 79 | 1013.7 |
| 20260507020003 | 10 | 7 | 4.8 | 9.7 | 0.00 | 0.00 | 0.00 | 79 | 1013.6 |
| 20260507015403 | 10 | 9 | 4.8 | 9.7 | 0.00 | 0.00 | 0.00 | 78 | 1013.5 |
| 20260507014503 | 10 | 5 | 4.8 | 9.7 | 0.00 | 0.00 | 0.00 | 78 | 1013.4 |
| 20260507013603 | 11 | 359 | 4.8 | 9.7 | 0.00 | 0.00 | 0.00 | 77 | 1013.5 |
| 20260507012703 | 11 | 357 | 4.8 | 8.0 | 0.00 | 0.00 | 0.00 | 76 | 1013.5 |
| 20260507012017 | 11 | 360 | 4.8 | 9.7 | 0.00 | 0.00 | 0.00 | 76 | 1013.5 |
| 20260507010903 | 11 | 8 | 3.2 | 8.0 | 0.00 | 0.00 | 0.00 | 76 | 1013.5 |
| 20260507010004 | 11 | 21 | 3.2 | 8.0 | 0.00 | 0.00 | 0.00 | 74 | 1013.4 |
| 20260507005403 | 11 | 18 | 3.2 | 8.0 | 0.00 | 0.00 | 0.00 | 75 | 1013.4 |
| 20260507004503 | 10 | 6 | 3.2 | 6.4 | 0.00 | 0.00 | 0.00 | 76 | 1013.4 |
| 20260507003818 | 10 | 4 | 3.2 | 6.4 | 0.00 | 0.00 | 0.00 | 76 | 1013.3 |
| 20260507002703 | 10 | 338 | 1.6 | 4.8 | 0.00 | 0.00 | 0.00 | 76 | 1013.3 |
| 20260507001803 | 10 | 326 | 0.0 | 4.8 | 0.00 | 0.00 | 0.00 | 77 | 1013.3 |
| 20260507001118 | 10 | 304 | 0.0 | 3.2 | 0.00 | 0.00 | 0.00 | 78 | 1013.3 |
| 20260507000003 | 10 | 359 | 0.0 | 3.2 | 0.00 | 0.00 | 0.00 | 77 | 1013.2 |
| 20260506235617 | 10 | 3 | 0.0 | 3.2 | 0.00 | 0.00 | 0.00 | 78 | 1013.2 |
| 20260506234716 | 10 | 0 | 0.0 | 0.0 | 0.00 | 0.00 | 0.00 | 77 | 1013.2 |
| 20260506233603 | 10 | 0 | 0.0 | 0.0 | 0.00 | 0.00 | 0.00 | 77 | 1013.1 |
| 20260506232703 | 10 | 0 | 0.0 | 3.2 | 0.00 | 0.00 | 0.00 | 77 | 1013.1 |
| 20260506231803 | 10 | 5 | 0.0 | 3.2 | 0.00 | 0.00 | 0.00 | 76 | 1013.0 |
| 20260506230903 | 10 | 0 | 0.0 | 0.0 | 0.00 | 0.00 | 0.00 | 76 | 1013.0 |
| 20260506230003 | 10 | 15 | 0.0 | 3.2 | 0.00 | 0.00 | 0.00 | 75 | 1012.9 |
| 20260506225617 | 10 | 19 | 0.0 | 3.2 | 0.00 | 0.00 | 0.00 | 75 | 1012.8 |
| 20260506224503 | 10 | 39 | 0.0 | 3.2 | 0.00 | 0.00 | 0.00 | 74 | 1012.8 |
| 20260506223817 | 10 | 68 | 0.0 | 3.2 | 0.00 | 0.00 | 0.00 | 75 | 1012.9 |
| 20260506222703 | 10 | 0 | 0.0 | 0.0 | 0.00 | 0.00 | 0.00 | 75 | 1012.8 |
| 20260506221803 | 11 | 0 | 0.0 | 0.0 | 0.00 | 0.00 | 0.00 | 75 | 1012.8 |
| 20260506220903 | 11 | 0 | 0.0 | 0.0 | 0.00 | 0.00 | 0.00 | 72 | 1012.7 |
| 20260506220004 | 11 | 65 | 0.0 | 3.2 | 0.00 | 0.00 | 0.00 | 72 | 1012.7 |
| 20260506215403 | 11 | 65 | 0.0 | 3.2 | 0.00 | 0.00 | 0.00 | 72 | 1012.7 |
| 20260506214503 | 11 | 64 | 0.0 | 3.2 | 0.00 | 0.00 | 0.00 | 72 | 1012.7 |
| 20260506213603 | 11 | 0 | 0.0 | 0.0 | 0.00 | 0.00 | 0.00 | 72 | 1012.6 |
| 20260506212703 | 11 | 0 | 0.0 | 0.0 | 0.00 | 0.00 | 0.00 | 73 | 1012.5 |
| 20260506211803 | 11 | 0 | 0.0 | 0.0 | 0.00 | 0.00 | 0.00 | 74 | 1012.5 |
| 20260506210903 | 11 | 0 | 0.0 | 0.0 | 0.00 | 0.00 | 0.00 | 73 | 1012.4 |
| 20260506210004 | 11 | 0 | 0.0 | 0.0 | 0.00 | 0.00 | 0.00 | 73 | 1012.4 |
| 20260506205403 | 11 | 0 | 0.0 | 0.0 | 0.00 | 0.00 | 0.00 | 71 | 1012.3 |
| 20260506204717 | 11 | 0 | 0.0 | 0.0 | 0.00 | 0.00 | 0.00 | 70 | 1012.3 |
| 20260506203817 | 11 | 64 | 0.0 | 1.6 | 0.00 | 0.00 | 0.00 | 68 | 1012.1 |
| 20260506202703 | 11 | 64 | 0.0 | 3.2 | 0.00 | 0.00 | 0.00 | 68 | 1012.0 |
| 20260506201803 | 11 | 69 | 0.0 | 4.8 | 0.00 | 0.00 | 0.00 | 67 | 1012.1 |
| 20260506200903 | 11 | 78 | 0.0 | 3.2 | 0.00 | 0.00 | 0.00 | 66 | 1012.0 |
| 20260506200218 | 11 | 82 | 0.0 | 3.2 | 0.00 | 0.00 | 0.00 | 65 | 1012.0 |
| 20260506195403 | 11 | 86 | 0.0 | 3.2 | 0.00 | 0.00 | 0.00 | 67 | 1011.9 |
| 20260506194503 | 11 | 85 | 0.0 | 3.2 | 0.00 | 0.00 | 0.00 | 65 | 1011.7 |
| 20260506193603 | 12 | 89 | 1.6 | 4.8 | 0.00 | 0.00 | 0.00 | 65 | 1011.7 |
| 20260506192703 | 12 | 81 | 1.6 | 4.8 | 0.00 | 0.00 | 0.00 | 64 | 1011.6 |
| 20260506191803 | 12 | 79 | 1.6 | 8.0 | 0.00 | 0.00 | 0.00 | 64 | 1011.6 |
| 20260506190903 | 12 | 62 | 3.2 | 8.0 | 0.00 | 0.00 | 0.00 | 64 | 1011.5 |
| 20260506190004 | 12 | 58 | 1.6 | 8.0 | 0.00 | 0.00 | 0.00 | 64 | 1011.4 |
| 20260506185403 | 12 | 50 | 3.2 | 11.3 | 0.00 | 0.00 | 0.00 | 63 | 1011.4 |
| 20260506184718 | 12 | 56 | 4.8 | 11.3 | 0.00 | 0.00 | 0.00 | 62 | 1011.2 |
| 20260506183604 | 12 | 71 | 6.4 | 14.5 | 0.00 | 0.00 | 0.00 | 61 | 1011.1 |
| 20260506182703 | 12 | 60 | 6.4 | 14.5 | 0.00 | 0.00 | 0.00 | 61 | 1011.1 |
| 20260506181803 | 12 | 58 | 4.8 | 14.5 | 0.00 | 0.00 | 0.00 | 62 | 1010.9 |
| 20260506180903 | 13 | 59 | 4.8 | 14.5 | 0.00 | 0.00 | 0.00 | 61 | 1010.7 |
| 20260506180217 | 13 | 40 | 3.2 | 8.0 | 0.00 | 0.00 | 0.00 | 61 | 1010.7 |
| 20260506175404 | 13 | 32 | 4.8 | 9.7 | 0.00 | 0.00 | 0.00 | 59 | 1010.5 |
| 20260506174503 | 13 | 37 | 4.8 | 8.0 | 0.00 | 0.00 | 0.00 | 60 | 1010.4 |
| 20260506173603 | 13 | 43 | 4.8 | 14.5 | 0.00 | 0.00 | 0.00 | 59 | 1010.3 |
| 20260506172703 | 13 | 47 | 6.4 | 16.1 | 0.00 | 0.00 | 0.00 | 58 | 1010.2 |
| 20260506171803 | 13 | 39 | 4.8 | 12.9 | 0.00 | 0.00 | 0.00 | 59 | 1010.2 |
| 20260506170903 | 13 | 41 | 4.8 | 11.3 | 0.00 | 0.00 | 0.00 | 58 | 1010.1 |
| 20260506170004 | 13 | 31 | 6.4 | 14.5 | 0.00 | 0.00 | 0.00 | 58 | 1010.0 |
| 20260506165403 | 13 | 38 | 8.0 | 14.5 | 0.00 | 0.00 | 0.00 | 58 | 1009.9 |
| 20260506164503 | 13 | 31 | 6.4 | 12.9 | 0.00 | 0.00 | 0.00 | 59 | 1009.7 |
| 20260506163817 | 13 | 33 | 6.4 | 12.9 | 0.00 | 0.00 | 0.00 | 57 | 1009.8 |
| 20260506162703 | 14 | 23 | 6.4 | 11.3 | 0.00 | 0.00 | 0.00 | 59 | 1009.7 |
| 20260506161803 | 14 | 22 | 6.4 | 14.5 | 0.00 | 0.00 | 0.00 | 59 | 1009.6 |
| 20260506160903 | 14 | 23 | 6.4 | 11.3 | 0.00 | 0.00 | 0.00 | 60 | 1009.6 |
| 20260506160003 | 14 | 27 | 6.4 | 14.5 | 0.00 | 0.00 | 0.00 | 60 | 1009.6 |
| 20260506155403 | 14 | 27 | 8.0 | 12.9 | 0.00 | 0.00 | 0.00 | 60 | 1009.6 |
| 20260506154503 | 14 | 4 | 8.0 | 14.5 | 0.00 | 0.00 | 0.00 | 60 | 1009.6 |
| 20260506153603 | 15 | 339 | 6.4 | 14.5 | 0.00 | 0.00 | 0.00 | 62 | 1009.6 |
| 20260506152703 | 15 | 322 | 6.4 | 19.3 | 0.00 | 0.00 | 0.00 | 64 | 1009.6 |
| 20260506152017 | 15 | 305 | 6.4 | 19.3 | 0.00 | 0.00 | 0.00 | 66 | 1009.6 |
| 20260506150903 | 15 | 337 | 6.4 | 16.1 | 0.00 | 0.00 | 0.00 | 67 | 1009.6 |
| 20260506150003 | 14 | 338 | 6.4 | 16.1 | 0.00 | 0.00 | 0.00 | 65 | 1009.6 |
| 20260506145403 | 14 | 339 | 8.0 | 16.1 | 0.00 | 0.00 | 0.00 | 65 | 1009.6 |
| 20260506144503 | 14 | 332 | 6.4 | 17.7 | 0.00 | 0.00 | 0.00 | 66 | 1009.6 |
| 20260506143603 | 14 | 356 | 6.4 | 14.5 | 0.00 | 0.00 | 0.00 | 63 | 1009.7 |
| 20260506142703 | 14 | 6 | 8.0 | 16.1 | 0.00 | 0.00 | 0.00 | 62 | 1009.6 |
| 20260506141803 | 14 | 9 | 8.0 | 14.5 | 0.00 | 0.00 | 0.00 | 62 | 1009.6 |
| 20260506140903 | 14 | 11 | 9.7 | 17.7 | 0.00 | 0.00 | 0.00 | 60 | 1009.6 |
| 20260506140003 | 15 | 353 | 9.7 | 19.3 | 0.00 | 0.00 | 0.00 | 61 | 1009.6 |
| 20260506135403 | 15 | 344 | 8.0 | 17.7 | 0.00 | 0.00 | 0.00 | 65 | 1009.6 |
| 20260506134503 | 15 | 334 | 6.4 | 20.9 | 0.00 | 0.00 | 0.00 | 68 | 1009.5 |
| 20260506133603 | 14 | 347 | 8.0 | 20.9 | 0.00 | 0.00 | 0.00 | 69 | 1009.6 |
| 20260506132703 | 14 | 339 | 8.0 | 16.1 | 0.00 | 0.00 | 0.00 | 70 | 1009.6 |
| 20260506131803 | 13 | 340 | 8.0 | 17.7 | 0.00 | 0.00 | 0.00 | 72 | 1009.7 |
| 20260506131118 | 13 | 331 | 6.4 | 16.1 | 0.00 | 0.00 | 0.00 | 72 | 1009.6 |
| 20260506130003 | 13 | 350 | 8.0 | 14.5 | 0.00 | 0.00 | 0.00 | 74 | 1009.6 |
| 20260506125403 | 13 | 336 | 6.4 | 14.5 | 0.00 | 0.00 | 0.00 | 73 | 1009.5 |
| 20260506124503 | 13 | 324 | 8.0 | 17.7 | 0.00 | 0.00 | 0.00 | 73 | 1009.4 |
| 20260506123603 | 13 | 328 | 8.0 | 19.3 | 0.00 | 0.00 | 0.00 | 71 | 1009.4 |
| 20260506122703 | 14 | 334 | 8.0 | 17.7 | 0.00 | 0.00 | 0.00 | 70 | 1009.3 |
| 20260506121803 | 14 | 336 | 6.4 | 16.1 | 0.00 | 0.00 | 0.00 | 70 | 1009.3 |
| 20260506120903 | 14 | 338 | 6.4 | 17.7 | 0.00 | 0.00 | 0.00 | 70 | 1009.3 |
| 20260506120003 | 15 | 334 | 8.0 | 20.9 | 0.00 | 0.00 | 0.00 | 69 | 1009.3 |
| 20260506115403 | 15 | 335 | 8.0 | 19.3 | 0.00 | 0.00 | 0.00 | 70 | 1009.3 |
| 20260506114503 | 15 | 320 | 6.4 | 16.1 | 0.00 | 0.00 | 0.00 | 70 | 1009.2 |
| 20260506113603 | 14 | 333 | 8.0 | 19.3 | 0.00 | 0.00 | 0.00 | 72 | 1009.2 |
| 20260506112703 | 14 | 317 | 8.0 | 16.1 | 0.00 | 0.00 | 0.00 | 73 | 1009.2 |
| 20260506111803 | 14 | 310 | 4.8 | 14.5 | 0.00 | 0.00 | 0.00 | 74 | 1009.2 |
| 20260506110903 | 13 | 336 | 8.0 | 16.1 | 0.00 | 0.00 | 0.00 | 73 | 1009.3 |
| 20260506110003 | 13 | 320 | 4.8 | 12.9 | 0.00 | 0.00 | 0.00 | 74 | 1009.3 |